Wind_Speed
33 32 32 31 30 29 29 29 29 27 27 26 25 25 24 22 21 19 17 16 16 16 15 14 13 12 10 9 8 7 7 8 8 10 11 13 13 13 13 13 15 16 17 18
37 35 34 34 33 33 34 32 31 31 30 28 27 27 26 25 24 22 21 20 19 20 19 17 14 12 10 10 9 8 8 9 9 10 11 11 12 12 13 14 15 16 17 18
40 37 35 35 35 37 37 36 34 33 31 31 30 28 27 27 27 26 25 24 23 22 20 17 16 14 12 11 11 11 10 11 11 11 11 12 13 14 14 15 15 16 17 18
40 38 38 35 37 38 38 38 37 34 33 32 31 30 30 30 29 29 29 28 27 24 22 19 18 17 16 15 15 14 13 12 12 13 13 14 15 16 17 16 17 18 18 18
40 38 36 35 37 39 40 40 39 37 35 33 32 33 32 32 32 31 31 30 28 27 25 22 20 19 18 18 18 17 16 16 16 16 16 16 17 18 18 19 20 20 21 21
41 39 37 34 34 36 38 40 38 36 36 35 35 35 34 34 33 32 31 30 29 27 24 23 22 21 21 20 20 20 19 18 18 17 17 18 18 19 20 21 22 22 23 24
38 38 36 33 31 33 36 36 36 36 36 36 36 36 35 34 34 33 32 31 30 28 25 25 24 24 23 24 23 22 22 21 21 20 19 20 20 21 22 23 24 25 26 27
37 36 36 32 32 33 34 34 35 35 36 36 36 35 35 34 33 32 31 30 29 28 27 26 25 25 25 25 24 24 23 23 23 22 22 22 22 23 24 25 27 29 29 30
35 35 34 32 32 32 32 32 32 32 33 34 33 33 33 32 31 30 30 29 29 28 27 27 27 26 26 25 25 25 25 25 25 24 24 24 25 26 25 26 28 29 30 31
34 34 33 32 32 32 32 31 31 31 31 31 30 30 30 30 30 29 29 29 29 29 28 27 27 27 27 26 26 26 26 26 25 26 26 25 26 26 26 27 29 30 29 30
33 33 32 30 30 30 30 30 30 30 30 31 29 28 28 28 28 28 27 27 27 27 27 26 26 26 27 27 26 26 26 26 26 27 26 26 26 27 27 27 27 28 28 29
31 29 29 28 28 28 29 29 29 28 27 27 27 26 26 26 26 26 26 25 25 25 25 25 25 26 26 26 25 25 26 27 27 26 26 27 27 26 27 28 28 29 29 30
27 26 27 27 27 26 26 26 26 26 26 25 25 24 24 24 24 24 23 22 22 23 23 23 24 24 24 23 23 23 24 25 24 23 24 25 26 26 27 27 28 29 31 32
25 24 24 25 24 23 24 24 23 23 22 22 22 21 21 21 21 21 20 19 19 20 21 20 20 20 20 20 20 20 20 21 22 22 21 22 23 24 25 27 28 30 32 33
23 22 21 21 21 21 21 20 20 20 19 18 18 17 17 17 17 16 16 16 17 18 19 18 17 17 17 17 17 17 18 19 20 20 20 21 21 23 25 27 29 32 33 34
22 21 20 20 20 20 19 18 18 17 16 15 14 14 14 14 14 14 14 14 15 16 16 16 16 16 16 15 15 16 17 17 18 18 19 21 23 25 27 29 30 32 33 35
18 18 18 17 17 16 16 16 15 14 13 13 12 11 11 12 12 12 12 12 13 13 14 13 12 12 13 13 13 14 15 16 17 19 20 21 24 26 28 29 31 32 33 35
17 16 15 14 13 13 12 12 12 11 10 10 10 10 10 10 10 11 11 10 10 10 10 10 10 9 9 9 11 13 15 16 17 19 21 23 24 26 28 30 31 32 34 35
15 14 13 12 11 11 10 10 9 9 9 9 8 8 9 9 9 9 9 9 9 9 9 8 8 8 9 10 11 13 14 16 18 20 22 24 26 28 29 30 31 32 33 33
13 12 11 10 10 9 8 8 8 7 8 8 9 9 9 9 9 9 8 8 7 7 7 7 7 8 9 10 12 14 16 18 20 22 24 26 27 28 29 30 31 31 31 31
11 11 10 10 10 9 9 9 8 8 8 9 8 8 8 8 8 8 8 7 7 7 7 8 9 10 11 13 15 17 19 21 23 24 26 26 27 28 29 30 30 29 29 29
11 11 11 10 10 10 10 10 9 8 8 9 9 9 8 8 7 7 7 7 8 8 9 10 11 12 14 16 19 20 22 23 25 25 26 27 27 28 28 28 27 27 26 26
12 12 12 11 11 11 12 11 10 9 9 9 8 8 8 7 7 7 8 9 9 10 11 12 14 15 17 19 21 23 24 24 25 26 26 26 26 26 26 25 24 24 24 24
12 12 11 10 10 11 12 11 11 10 9 9 9 9 9 9 9 10 10 11 12 13 15 16 17 19 20 21 23 24 24 24 25 25 25 25 25 24 23 23 22 22 22 21
12 11 11 10 10 10 10 10 10 11 11 11 11 11 11 11 12 12 13 14 15 16 17 18 20 21 22 23 23 24 24 24 24 24 23 23 22 22 21 21 21 20 20 19
11 11 11 10 11 11 10 10 11 12 12 12 12 12 12 13 14 15 16 16 17 19 20 21 22 22 23 23 24 24 24 24 23 23 22 21 21 21 20 20 20 19 18 18
11 10 10 10 10 10 10 10 10 11 12 13 14 14 15 16 16 17 18 19 20 21 22 23 24 24 24 25 24 24 24 23 22 21 21 20 20 20 20 19 19 18 18 18
Wind_Direction
239 239 240 242 244 247 251 255 257 259 261 262 266 271 276 279 283 289 291 291 293 294 296 300 296 293 296 293 289 282 264 256 249 247 249 245 242 243 245 248 247 248 250 254
241 242 243 244 247 250 250 253 257 259 260 263 269 272 274 279 284 288 288 287 288 290 291 292 290 285 283 280 279 275 265 257 255 257 251 248 247 249 253 254 257 257 256 258
243 245 245 245 247 250 252 253 257 260 262 264 264 267 272 277 281 284 284 284 286 285 283 282 278 273 272 271 270 271 266 261 258 258 256 255 255 257 261 262 263 266 266 265
244 245 245 248 248 249 252 254 257 260 261 263 262 267 271 273 276 280 282 283 282 280 277 275 270 266 264 265 266 267 266 267 266 265 264 262 261 263 265 267 267 267 269 270
246 246 247 247 247 247 251 255 257 259 261 262 265 267 270 274 276 278 279 281 280 276 275 270 266 263 259 260 261 262 262 263 265 267 268 267 265 265 266 268 270 272 271 273
245 247 248 246 245 247 249 253 257 259 260 264 265 268 271 275 277 277 277 277 276 274 270 267 264 262 258 256 256 258 260 261 263 267 268 265 265 267 269 273 274 274 273 276
243 245 246 244 242 245 249 254 257 259 260 263 266 269 272 273 275 276 276 275 274 268 264 262 262 258 256 254 255 255 257 259 263 265 267 269 271 270 272 275 276 275 276 278
240 243 245 246 249 249 251 253 256 259 261 263 265 267 269 271 272 273 273 272 270 267 263 260 259 257 256 255 255 255 255 259 262 264 268 272 272 271 273 276 277 276 278 279
239 244 247 248 248 249 250 253 257 261 263 263 262 264 267 268 270 270 270 269 267 265 263 261 260 257 260 258 256 257 259 261 263 265 269 271 271 272 275 277 278 279 280 279
241 243 246 249 250 250 252 256 259 262 264 266 265 265 266 266 267 268 267 267 265 262 261 260 258 257 258 257 258 259 260 262 262 264 269 270 272 274 276 279 280 282 282 281
241 243 246 250 251 252 254 258 261 264 267 268 267 266 266 266 267 267 267 267 265 262 259 257 257 255 256 255 256 257 259 261 264 263 265 269 271 275 278 280 282 282 283 284
240 242 245 248 251 255 258 261 265 267 268 269 268 266 266 266 267 268 267 266 263 260 257 256 254 255 255 254 256 257 258 259 262 263 266 271 274 276 277 279 282 285 286 286
239 241 244 249 254 258 261 264 266 267 270 269 268 266 266 267 267 267 266 263 260 257 254 252 252 253 253 254 256 257 259 259 261 267 269 272 273 275 280 282 284 286 289 292
242 243 247 251 255 259 263 265 266 267 267 266 265 263 262 263 262 262 261 259 256 251 249 248 247 247 248 248 251 253 256 258 263 266 270 275 276 279 283 286 287 288 291 294
248 250 253 254 257 261 263 262 261 264 263 261 259 257 258 259 258 256 254 253 249 246 244 242 241 241 243 244 249 252 255 258 265 268 272 278 282 283 285 287 290 292 295 297
251 255 257 257 261 265 263 259 259 259 257 255 253 251 253 253 251 247 244 242 241 241 240 241 241 238 238 240 244 252 257 263 270 273 277 280 283 286 288 290 293 296 298 300
249 251 254 258 261 259 254 253 254 254 249 248 248 246 245 242 237 235 235 232 232 233 231 230 226 225 233 242 249 258 263 268 273 277 280 283 287 290 293 295 297 300 301 303
242 246 252 256 252 247 245 243 243 242 239 240 236 232 226 219 219 220 220 221 218 212 211 216 218 227 239 250 261 267 270 274 278 283 288 291 294 296 298 300 302 303 304 305
234 240 244 239 233 230 232 230 229 227 224 221 217 207 198 197 198 198 200 201 204 205 211 219 227 239 253 264 271 277 282 286 291 294 296 297 298 299 301 303 303 304 305 306
225 228 223 219 216 216 212 209 206 199 195 187 180 178 177 176 178 183 189 193 199 210 220 230 247 259 267 273 279 286 290 292 294 296 297 298 299 300 302 303 304 304 305 306
215 212 208 205 203 200 195 192 186 180 177 174 172 173 176 180 188 193 197 205 216 229 243 256 264 269 275 280 286 290 293 294 295 297 298 298 299 301 302 303 304 305 305 306
208 203 199 194 192 190 188 187 183 180 178 177 179 181 188 195 204 212 219 231 241 251 260 267 271 276 282 287 291 294 295 296 297 297 298 299 300 302 303 304 304 305 306 308
195 195 193 193 191 190 189 189 190 190 191 191 194 200 208 218 228 236 245 254 259 266 271 276 280 284 288 290 293 295 295 296 297 298 299 299 300 301 303 304 306 308 310 311
195 193 191 193 194 195 196 198 201 204 210 216 217 220 227 237 247 255 263 267 272 276 279 282 285 288 290 292 293 294 295 296 297 297 297 298 299 301 304 306 308 310 311 312
187 190 195 197 195 196 201 208 214 219 225 228 228 232 242 252 260 267 272 275 277 280 282 285 289 290 292 293 294 295 295 296 297 297 297 298 299 301 304 305 307 310 312 316
188 192 197 203 207 209 215 225 231 231 233 236 241 246 253 260 267 272 276 279 282 284 286 288 290 291 292 293 293 294 295 295 296 296 297 297 298 300 302 304 306 308 311 315
198 204 210 218 222 223 228 232 234 238 244 249 254 259 265 270 274 277 279 281 284 286 288 289 289 290 291 292 293 293 293 293 294 294 294 294 296 298 300 303 304 306 309 311
Height
5814 5817 5819 5821 5822 5823 5824 5824 5824 5824 5824 5825 5826 5827 5828 5829 5830 5830 5830 5831 5831 5830 5829 5829 5829 5828 5827 5827 5826 5826 5825 5826 5826 5827 5828 5829 5829 5830 5831 5832 5832 5833 5834 5834
5807 5811 5812 5814 5816 5817 5817 5817 5817 5818 5819 5820 5821 5822 5823 5823 5824 5825 5825 5826 5826 5826 5825 5824 5824 5823 5823 5823 5824 5823 5824 5824 5824 5824 5824 5825 5826 5827 5827 5828 5828 5829 5829 5830
5801 5804 5806 5808 5809 5809 5809 5810 5811 5812 5814 5815 5816 5817 5818 5818 5818 5819 5820 5820 5820 5820 5819 5819 5819 5820 5819 5820 5821 5821 5820 5820 5820 5821 5821 5822 5823 5823 5824 5824 5824 5825 5825 5825
5793 5797 5798 5803 5801 5801 5802 5802 5804 5805 5807 5808 5809 5811 5811 5812 5812 5813 5813 5814 5814 5813 5813 5813 5814 5814 5815 5816 5816 5817 5817 5817 5817 5818 5818 5818 5818 5819 5819 5819 5820 5820 5820 5820
5784 5786 5790 5792 5792 5794 5795 5795 5797 5798 5800 5801 5802 5803 5804 5804 5805 5806 5806 5806 5806 5806 5806 5807 5808 5808 5809 5810 5811 5811 5812 5813 5813 5813 5814 5813 5813 5813 5814 5814 5814 5814 5814 5813
5775 5778 5780 5784 5786 5786 5788 5787 5790 5791 5793 5794 5794 5795 5797 5796 5797 5797 5797 5798 5798 5798 5798 5800 5801 5802 5803 5804 5804 5805 5806 5807 5808 5808 5808 5808 5808 5808 5808 5808 5807 5807 5807 5806
5766 5768 5771 5774 5777 5779 5781 5781 5783 5784 5785 5786 5786 5788 5789 5788 5788 5788 5788 5789 5789 5790 5791 5792 5793 5794 5796 5797 5798 5799 5800 5801 5801 5802 5802 5802 5801 5801 5801 5801 5801 5800 5799 5798
5757 5760 5765 5766 5769 5771 5772 5773 5774 5775 5776 5777 5777 5778 5779 5779 5780 5779 5779 5780 5781 5782 5783 5783 5784 5786 5788 5789 5790 5791 5792 5793 5794 5795 5795 5795 5794 5794 5794 5794 5793 5792 5791 5790
5750 5754 5756 5758 5760 5762 5763 5765 5766 5767 5768 5768 5769 5769 5770 5770 5771 5771 5771 5771 5773 5774 5775 5776 5777 5778 5780 5781 5783 5784 5785 5786 5787 5788 5788 5788 5787 5787 5787 5786 5785 5784 5783 5782
5742 5745 5747 5749 5751 5753 5755 5756 5757 5759 5759 5759 5759 5760 5761 5761 5762 5763 5763 5763 5764 5765 5767 5768 5769 5770 5772 5774 5776 5777 5778 5779 5780 5781 5780 5780 5780 5779 5779 5778 5777 5776 5775 5773
5734 5737 5739 5741 5743 5745 5747 5748 5749 5750 5750 5751 5752 5752 5752 5753 5753 5754 5754 5755 5755 5757 5758 5760 5761 5762 5764 5766 5768 5769 5770 5772 5772 5772 5773 5773 5773 5772 5772 5771 5769 5768 5767 5765
5728 5730 5732 5734 5735 5737 5739 5740 5741 5741 5742 5742 5743 5744 5744 5744 5745 5746 5746 5747 5747 5749 5750 5752 5754 5755 5757 5759 5761 5762 5763 5764 5764 5765 5766 5766 5765 5765 5764 5763 5761 5760 5758 5756
5721 5723 5725 5727 5729 5730 5731 5732 5733 5733 5734 5734 5735 5735 5735 5736 5737 5738 5738 5739 5740 5741 5743 5745 5746 5748 5750 5751 5753 5755 5755 5757 5757 5758 5758 5758 5758 5757 5756 5755 5753 5751 5749 5746
5714 5716 5719 5721 5722 5723 5724 5725 5725 5725 5726 5726 5727 5727 5728 5729 5730 5731 5732 5732 5734 5735 5736 5738 5740 5742 5744 5745 5747 5748 5750 5751 5751 5751 5751 5751 5750 5749 5748 5747 5745 5742 5740 5737
5708 5711 5713 5714 5715 5716 5717 5718 5718 5719 5719 5719 5720 5721 5722 5722 5723 5725 5726 5727 5728 5730 5731 5733 5735 5737 5739 5740 5742 5743 5744 5744 5745 5745 5745 5744 5743 5742 5740 5738 5736 5733 5730 5726
5703 5705 5707 5708 5709 5710 5711 5711 5712 5712 5713 5714 5715 5716 5716 5717 5719 5720 5721 5723 5724 5726 5727 5729 5730 5732 5734 5736 5737 5738 5738 5739 5739 5739 5739 5738 5737 5735 5733 5730 5727 5724 5720 5716
5698 5700 5702 5703 5704 5704 5705 5706 5707 5707 5708 5709 5710 5711 5712 5713 5715 5717 5718 5719 5721 5722 5724 5725 5727 5728 5730 5731 5732 5733 5733 5734 5734 5733 5732 5731 5729 5727 5724 5721 5718 5714 5710 5706
5694 5696 5697 5698 5699 5700 5700 5701 5702 5703 5704 5705 5706 5707 5709 5710 5712 5714 5715 5717 5718 5720 5721 5723 5724 5726 5727 5727 5728 5729 5729 5728 5728 5727 5725 5723 5721 5719 5716 5712 5709 5705 5701 5696
5689 5691 5693 5694 5695 5696 5697 5698 5700 5700 5701 5703 5704 5705 5707 5709 5710 5712 5713 5715 5717 5718 5720 5721 5722 5723 5724 5724 5724 5724 5724 5723 5722 5720 5718 5716 5713 5711 5707 5704 5700 5696 5691 5687
5686 5687 5689 5690 5692 5693 5695 5696 5697 5698 5700 5701 5703 5704 5706 5708 5709 5711 5713 5714 5715 5716 5717 5718 5719 5719 5720 5720 5720 5719 5718 5717 5715 5713 5711 5708 5705 5702 5699 5695 5691 5686 5682 5678
5683 5685 5686 5688 5690 5692 5693 5695 5696 5698 5699 5700 5702 5704 5706 5707 5709 5710 5711 5712 5713 5714 5715 5715 5715 5715 5715 5715 5714 5713 5712 5710 5708 5706 5703 5700 5697 5694 5690 5686 5682 5678 5674 5669
5680 5682 5684 5687 5689 5690 5692 5694 5696 5697 5699 5700 5702 5703 5705 5706 5707 5708 5709 5710 5711 5711 5711 5711 5711 5711 5710 5710 5708 5707 5705 5703 5700 5698 5695 5692 5689 5685 5681 5677 5673 5670 5666 5662
5678 5681 5683 5685 5688 5690 5691 5693 5695 5697 5698 5699 5701 5702 5703 5704 5705 5706 5707 5707 5707 5707 5707 5707 5707 5706 5705 5703 5702 5700 5698 5695 5692 5689 5686 5683 5680 5677 5673 5669 5666 5662 5658 5655
5677 5680 5682 5684 5686 5688 5690 5692 5694 5696 5697 5698 5699 5700 5701 5702 5703 5703 5703 5703 5703 5703 5703 5702 5701 5700 5698 5696 5694 5692 5690 5687 5684 5681 5678 5675 5672 5669 5666 5662 5659 5656 5652 5649
5677 5679 5681 5684 5685 5687 5689 5691 5692 5694 5695 5696 5697 5697 5698 5698 5699 5699 5699 5699 5698 5698 5697 5696 5694 5692 5691 5688 5686 5684 5681 5679 5676 5673 5670 5667 5665 5662 5659 5656 5653 5650 5646 5643
5677 5679 5681 5683 5684 5686 5687 5689 5690 5691 5692 5693 5694 5694 5695 5695 5695 5694 5694 5693 5692 5691 5690 5688 5687 5685 5683 5680 5678 5676 5673 5670 5668 5665 5663 5660 5658 5655 5653 5650 5647 5644 5641 5638
5676 5678 5679 5681 5682 5684 5685 5686 5687 5688 5689 5690 5690 5690 5690 5690 5689 5689 5688 5687 5686 5684 5682 5681 5679 5677 5675 5672 5670 5668 5665 5663 5660 5658 5656 5654 5652 5649 5646 5644 5641 5638 5635 5633